Change the Weather History Date:

Sunday, April 21, 2013

  Actual Average Record
Temperature  
Mean Temperature 76 °F -  
Max Temperature 83 °F 84 °F 92 °F (1944)
Min Temperature 69 °F 63 °F 50 °F (1953)
Cooling Degree Days 11    
Growing Degree Days 26 (Base 50)    
Moisture  
Dew Point 71 °F    
Average Humidity 93    
Maximum Humidity 100    
Minimum Humidity 71    
Precipitation  
Precipitation 0.01 in - - ()
Sea Level Pressure  
Sea Level Pressure 30.05 in    
Wind  
Wind Speed 4 mph (NNE)    
Max Wind Speed 15 mph    
Max Gust Speed 23 mph    
Visibility 7 miles    
Events Rain    
Averages and records for this station are not official NWS values.
T = Trace of Precipitation, MM = Missing Value Source: NWS Daily Summary

Daily Weather History Graph

Daily Weather History Graph

Search for Another Location

Airport or City:

Trip Planner

Search our weather history database for the weather conditions in past years. The results will help you decide how hot, cold, wet, or windy it might be!

Date:

Astronomy

Apr. 21, 2013 Rise Set
Actual Time 6:53 AM EDT 7:47 PM EDT
Civil Twilight 6:29 AM EDT 8:11 PM EDT
Nautical Twilight 6:01 AM EDT 8:39 PM EDT
Astronomical Twilight 5:32 AM EDT 9:07 PM EDT
Moon 3:55 PM EDT (4/21) 3:47 AM EDT (4/21)
Length of Visible Light 13h 41m
Length of Day
12h 54m
Waxing Gibbous, 79% of the Moon is Illuminated
Apr 21
Waxing Gibbous
Apr 25
Full
May 2
Last Quarter
May 9
New
May 18
First Quarter

Hourly Weather History & Observations

Time (EDT) Temp. Heat Index Dew Point Humidity Pressure Visibility Wind Dir Wind Speed Gust Speed Precip Events Conditions
12:58 AM 72.1 °F - 69.8 °F 92% 30.08 in 10.0 mi NE 3.5 mph - N/A   Clear
1:58 AM 72.0 °F - 69.8 °F 93% 30.07 in 10.0 mi NNE 3.5 mph - N/A   Clear
2:33 AM 71.6 °F - 69.8 °F 94% 30.06 in 8.0 mi WNW 2.3 mph - N/A   Scattered Clouds
2:43 AM 71.6 °F - 69.8 °F 94% 30.06 in 10.0 mi NNW 2.3 mph - N/A   Partly Cloudy
2:55 AM 71.6 °F - 69.8 °F 94% 30.05 in 10.0 mi NNW 3.5 mph - N/A   Partly Cloudy
3:58 AM 71.8 °F - 70.5 °F 96% 30.05 in 10.0 mi NNW 5.8 mph - N/A   Clear
4:03 AM 71.6 °F - 71.6 °F 100% 30.04 in 9.0 mi NNW 5.8 mph - N/A   Clear
4:43 AM 71.6 °F - 71.6 °F 100% 30.02 in 5.0 mi NNE 3.5 mph - N/A   Scattered Clouds
4:53 AM 71.6 °F - 71.6 °F 100% 30.02 in 5.0 mi North 3.5 mph - N/A   Mostly Cloudy
4:58 AM 72.0 °F - 71.1 °F 97% 30.03 in 5.0 mi North 4.6 mph - N/A   Mostly Cloudy
5:03 AM 71.6 °F - 71.6 °F 100% 30.02 in 5.0 mi NNE 2.3 mph - N/A   Scattered Clouds
5:13 AM 71.6 °F - 71.6 °F 100% 30.02 in 5.0 mi NNE 2.3 mph - N/A   Partly Cloudy
5:33 AM 71.6 °F - 71.6 °F 100% 30.02 in 5.0 mi NNE 2.3 mph - N/A   Clear
5:53 AM 71.6 °F - 71.6 °F 100% 30.02 in 5.0 mi North 1.2 mph - N/A   Clear
5:58 AM 71.4 °F - 70.9 °F 98% 30.03 in 5.0 mi Calm Calm - N/A   Clear
6:03 AM 71.6 °F - 71.6 °F 100% 30.02 in 5.0 mi Calm Calm - N/A   Clear
6:13 AM 71.6 °F - 71.6 °F 100% 30.02 in 3.0 mi Calm Calm - N/A   Clear
6:18 AM 71.6 °F - 71.6 °F 100% 30.03 in 2.0 mi SSW 1.2 mph - N/A   Clear
6:23 AM 71.6 °F - 71.6 °F 100% 30.03 in 1.8 mi Calm Calm - N/A   Clear
6:28 AM 71.6 °F - 69.8 °F 94% 30.03 in 2.0 mi NNE 1.2 mph - N/A   Clear
6:33 AM 71.6 °F - 69.8 °F 94% 30.03 in 3.0 mi South 2.3 mph - N/A   Clear
6:43 AM 69.8 °F - 69.8 °F 100% 30.03 in 5.0 mi South 3.5 mph - N/A   Clear
6:48 AM 69.8 °F - 69.8 °F 100% 30.03 in 2.5 mi South 3.5 mph - N/A   Clear
6:53 AM 69.8 °F - 69.8 °F 100% 30.04 in 0.8 mi South 3.5 mph - N/A   Clear
6:58 AM 70.3 °F - 69.8 °F 98% 30.05 in 0.8 mi SSE 4.6 mph - N/A   Clear
7:03 AM 69.8 °F - 69.8 °F 100% 30.04 in 1.5 mi SSE 3.5 mph - N/A   Clear
7:08 AM 69.8 °F - 69.8 °F 100% 30.04 in 2.0 mi ESE 1.2 mph - N/A   Clear
7:13 AM 69.8 °F - 69.8 °F 100% 30.04 in 3.0 mi SE 2.3 mph - N/A   Clear
7:58 AM 72.9 °F - 72.5 °F 99% 30.08 in 10.0 mi North 5.8 mph - 0.01 in   Partly Cloudy
8:33 AM 73.4 °F - 73.4 °F 100% 30.08 in 10.0 mi NNW 10.4 mph - N/A   Mostly Cloudy
8:43 AM 73.4 °F - 73.4 °F 100% 30.08 in 9.0 mi NNW 10.4 mph - N/A   Scattered Clouds
8:58 AM 75.2 °F - 73.4 °F 94% 30.09 in 10.0 mi NNW 15.0 mph - N/A   Scattered Clouds
9:03 AM 73.4 °F - 73.4 °F 100% 30.08 in 9.0 mi NNW 15.0 mph - N/A   Mostly Cloudy
9:08 AM 73.4 °F - 71.6 °F 94% 30.08 in 3.0 mi NNW 12.7 mph - N/A   Mostly Cloudy
9:18 AM 73.4 °F - 73.4 °F 100% 30.08 in 5.0 mi North 5.8 mph - N/A   Mostly Cloudy
9:28 AM 75.2 °F - 73.4 °F 94% 30.08 in 10.0 mi NNW 5.8 mph - N/A   Scattered Clouds
9:58 AM 75.0 °F - 72.1 °F 91% 30.09 in 10.0 mi NNW 4.6 mph - N/A   Clear
10:58 AM 81.5 °F 86.7 °F 73.2 °F 76% 30.10 in 10.0 mi NE 5.8 mph - N/A   Clear
11:58 AM 83.1 °F 88.9 °F 72.7 °F 71% 30.10 in 10.0 mi East 6.9 mph - N/A   Clear
12:58 PM 81.7 °F 86.3 °F 72.0 °F 72% 30.08 in 10.0 mi East 12.7 mph - N/A   Partly Cloudy
1:58 PM 80.4 °F 84.5 °F 72.3 °F 76% 30.08 in 10.0 mi East 15.0 mph 23.0 mph N/A   Clear
2:58 PM 78.3 °F - 70.7 °F 77% 30.06 in 10.0 mi ESE 13.8 mph - N/A   Partly Cloudy
3:58 PM 77.5 °F - 69.3 °F 76% 30.04 in 10.0 mi East 5.8 mph - N/A   Clear
4:58 PM 76.6 °F - 68.7 °F 76% 30.01 in 10.0 mi SSE 8.1 mph - N/A   Clear
5:58 PM 76.8 °F - 71.6 °F 84% 30.02 in 10.0 mi SSW 3.5 mph - N/A   Partly Cloudy
6:24 PM 77.0 °F - 71.6 °F 83% 30.02 in 10.0 mi NNW 2.3 mph - N/A   Light Drizzle
6:58 PM 76.6 °F - 70.5 °F 81% 30.05 in 10.0 mi NNW 6.9 mph - 0.00 in Rain Light Rain
7:24 PM 75.2 °F - 69.8 °F 83% 30.04 in 10.0 mi NNW 10.4 mph - N/A   Scattered Clouds
7:58 PM 75.0 °F - 69.1 °F 82% 30.06 in 10.0 mi NNW 6.9 mph - 0.00 in   Mostly Cloudy
8:58 PM 74.1 °F - 69.4 °F 85% 30.05 in 10.0 mi North 2.3 mph - N/A   Scattered Clouds
9:58 PM 73.9 °F - 70.7 °F 90% 30.06 in 10.0 mi Calm Calm - N/A   Mostly Cloudy
10:58 PM 72.5 °F - 70.2 °F 92% 30.05 in 10.0 mi NE 3.5 mph - N/A   Mostly Cloudy
11:58 PM 74.8 °F - 71.2 °F 88% 30.07 in 10.0 mi ENE 3.5 mph - N/A   Scattered Clouds